This is the latest recevied weather packets stored in our database for station/object KE8AFF-13. If no packets are shown the sender has not sent any weather packets the latest 10 day(s).
| Time | Temp. | Humidity | Pressure | Rain* | Wind** | Luminosity | Snow |
|---|---|---|---|---|---|---|---|
| 1777661614 | 6.11° C | 94% | 1014 hPa | 0 mm | - | 294 W/m² | - |
| 1777661309 | 6.11° C | 95% | 1013.9 hPa | 0 mm | - | 255 W/m² | - |
| 1777661005 | 6.11° C | 96% | 1013.7 hPa | 0 mm | - | 192 W/m² | - |
| 1777660701 | 6.11° C | 96% | 1013.6 hPa | 0 mm | - | 157 W/m² | - |
| 1777660399 | 6.67° C | 97% | 1013.5 hPa | 0 mm | - | 218 W/m² | - |
| 1777660095 | 6.11° C | 97% | 1013.6 hPa | 0 mm | - | 544 W/m² | - |
| 1777659792 | 5.56° C | 98% | 1013.2 hPa | 0 mm | - | 286 W/m² | - |
| 1777659489 | 5.56° C | 98% | 1013.2 hPa | 0 mm | - | 372 W/m² | - |
| 1777659186 | 5.56° C | 98% | 1013.2 hPa | 0 mm | - | 226 W/m² | - |
| 1777658883 | 5.56° C | 99% | 1013.2 hPa | 0 mm | - | 139 W/m² | - |
| 1777658579 | 5° C | 99% | 1013.1 hPa | 0 mm | - | 142 W/m² | - |
| 1777658276 | 5.56° C | 99% | 1013.1 hPa | 1.27 mm | - | 157 W/m² | - |
| 1777657973 | 5.56° C | 99% | 1013.1 hPa | 3.05 mm | - | 130 W/m² | - |
| 1777657669 | 5.56° C | 99% | 1012.9 hPa | 4.83 mm | - | 164 W/m² | - |
| 1777657367 | 5.56° C | 99% | 1012.9 hPa | 4.32 mm | - | 238 W/m² | - |
| 1777657065 | 5.56° C | 98% | 1012.8 hPa | 3.05 mm | - | 284 W/m² | - |
| 1777656761 | 5.56° C | 98% | 1012.6 hPa | 1.78 mm | - | 127 W/m² | - |
| 1777656457 | 5.56° C | 98% | 1012.5 hPa | 0 mm | - | 85 W/m² | - |
| 1777656153 | 5.56° C | 98% | 1012.5 hPa | 0 mm | - | 69 W/m² | - |
| 1777655849 | 5.56° C | 98% | 1012.7 hPa | 0 mm | - | 49 W/m² | - |
| 1777655546 | 5.56° C | 98% | 1012.5 hPa | 0 mm | - | 49 W/m² | - |
| 1777655243 | 6.11° C | 98% | 1012.2 hPa | 0 mm | - | 70 W/m² | - |
| 1777654940 | 6.11° C | 98% | 1012.2 hPa | 0 mm | - | 54 W/m² | - |
| 1777654637 | 6.11° C | 98% | 1012.1 hPa | 1.27 mm | - | 52 W/m² | - |
| 1777654334 | 6.67° C | 97% | 1011.9 hPa | 6.1 mm | - | 64 W/m² | - |
* Rain latest hour (hover to see other rain measurements)
** Current wind speed in m/s (hover to see current wind gust speed)